Location: Arboyeti
(42.1122°N, 44.6017°E)
Time: 05:28:23
(UTC+00:00)

NOSS 3-3 (A) - Pass Details

Date: 19 April 2021
Orbit: 805 x 1407 km, 63.4° (Epoch: 09 May)

Event Time Altitude Azimuth Distance (km) Brightness Sun altitude
Exits shadow 23:10:55 69° 302° (WNW) 973 3.8 -28.6°
Maximum altitude 23:11:00 70° 308° (NW) 973 3.9 -28.6°
Drops below altitude 10° 23:17:29 10° 32° (NNE) 2,807 7.4 -27.9°
Sets 23:20:18 0° 35° (NE) 3,857 8.4 -27.5°
